Stations météo

Publicité
Lyon/Bron, France (7480): Température de l'air & dewpoint: 22.03.2020 22:00:00 - 28.03.2020 22:00:00 (CET)Lyon/Bron, France (7480): Température de l'air 5cm: 22.03.2020 22:00:00 - 28.03.2020 22:00:00 (CET)Lyon/Bron, France (7480): Température de l'air -20cm: 22.03.2020 22:00:00 - 28.03.2020 22:00:00 (CET)Lyon/Bron, France (7480): Vitesse du vent & gusts: 22.03.2020 22:00:00 - 28.03.2020 22:00:00 (CET)Lyon/Bron, France (7480): Direction du vent: 22.03.2020 22:00:00 - 28.03.2020 22:00:00 (CET)Lyon/Bron, France (7480): reduced air pressure: 22.03.2020 22:00:00 - 28.03.2020 22:00:00 (CET)Lyon/Bron, France (7480): visibility: 22.03.2020 22:00:00 - 28.03.2020 22:00:00 (CET)Lyon/Bron, France (7480): Ensoleillement: 22.03.2020 22:00:00 - 28.03.2020 22:00:00 (CET)Lyon/Bron, France (7480): Quantités de précipitations: 22.03.2020 22:00:00 - 28.03.2020 22:00:00 (CET)
Date & Time tt [°C] td [°C] tt 5cm [°C] tt -20cm [°C] ff [km/h] ff [knt] fx [km/h] fx [knt] dd ppp [hPa] vv [km] sd [min] rr [mm]
28.03.2020 22:00:00 13,0 3,9 8,7 12,4 8 4 19 11 W 1016,4 19 0 0,0
28.03.2020 21:00:00 13,6 4,5 5,8 12,4 13 7 23 12 NW 1016,5 17 0 0,0
28.03.2020 20:00:00 12,8 3,7 6,1 12,4 5 3 11 6 NNW 1016,2 17 0 0,0
28.03.2020 19:00:00 15,1 4,2 11,5 12,2 9 5 21 12 N 1015,6 20 0 0,0
28.03.2020 18:00:00 16,5 4,5 17,3 12,0 15 8 30 16 N 1015,2 20 54 0,0
28.03.2020 17:00:00 17,2 4,2 21,2 11,7 18 10 30 16 N 1014,9 19 60 0,0
28.03.2020 16:00:00 17,3 4,3 23,5 11,4 16 9 29 16 N 1015,0 18 60 0,0
28.03.2020 15:00:00 17,4 3,3 23,4 11,1 15 8 36 19 N 1015,4 18 60 0,0
28.03.2020 14:00:00 16,7 3,4 23,6 10,9 16 9 29 16 NNW 1016,0 19 60 0,0
28.03.2020 13:00:00 15,5 3,6 23,8 10,7 14 8 25 14 N 1016,8 13 60 0,0
28.03.2020 12:00:00 14,2 3,3 19,5 10,6 8 4 16 9 N 1017,4 16 53 0,0
28.03.2020 11:00:00 12,2 2,9 16,1 10,6 4 2 11 6 NNW 1018,1 14 37 0,0
28.03.2020 10:00:00 9,8 3,1 11,9 10,6 2 1 6 4 N 1018,6 9 1 0,0
28.03.2020 09:00:00 7,6 2,7 7,0 10,7 2 1 5 3 WSW 1018,6 8 0 0,0
28.03.2020 08:00:00 5,6 1,9 3,1 10,8 3 1 5 3 ENE 1018,5 9 0 0,0
28.03.2020 07:00:00 4,7 1,4 1,7 10,9 3 2 4 2 S 1018,4 10 0 0,0
28.03.2020 06:00:00 5,0 0,9 2,8 11,0 2 1 6 3 S 1018,0 10 0 0,0
28.03.2020 05:00:00 4,5 1,2 1,1 11,2 4 2 6 3 SSE 1017,9 9 0 0,0
28.03.2020 04:00:00 3,6 0,5 -0,9 11,3 2 1 7 4 S 1017,9 9 0 0,0
28.03.2020 03:00:00 4,0 0,5 -0,6 11,4 4 2 9 5 S 1018,0 10 0 0,0
28.03.2020 02:00:00 5,1 0,8 0,3 11,5 6 4 11 6 SSW 1017,6 11 0 0,0
28.03.2020 01:00:00 5,2 1,1 0,2 11,7 8 4 10 5 SSW 1017,5 10 0 0,0
28.03.2020 00:00:00 6,2 1,7 1,1 11,8 7 4 9 5 SSW 1017,4 9 0 0,0
27.03.2020 23:00:00 6,4 1,3 1,5 11,9 3 2 4 2 SW 1017,4 15 0 0,0
27.03.2020 22:00:00 8,2 0,9 2,8 11,9 3 2 8 5 WNW 1016,8 16 0 0,0
27.03.2020 21:00:00 9,0 0,9 3,5 12,0 5 3 8 5 NNW 1016,4 16 0 0,0
27.03.2020 20:00:00 10,4 1,0 4,9 11,9 7 4 13 7 N 1015,9 19 0 0,0
27.03.2020 19:00:00 11,5 1,4 8,9 11,8 6 4 15 8 N 1015,1 20 0 0,0
27.03.2020 18:00:00 12,5 1,5 12,4 11,7 10 5 21 11 N 1014,5 21 0 0,0
27.03.2020 17:00:00 12,6 0,7 14,1 11,5 12 7 26 14 N 1014,2 19 7 0,0
27.03.2020 16:00:00 12,8 1,1 15,9 11,3 14 7 26 14 NNE 1014,3 20 29 0,0
27.03.2020 15:00:00 12,6 0,7 19,7 11,0 15 8 32 17 N 1014,4 23 53 0,0
27.03.2020 14:00:00 12,2 0,6 18,8 10,8 21 11 35 19 N 1014,6 11 53 0,0
27.03.2020 13:00:00 11,5 0,6 18,8 10,7 17 9 36 19 N 1014,8 19 47 0,0
27.03.2020 12:00:00 9,8 -0,4 15,1 10,7 14 8 26 14 NNW 1015,3 15 47 0,0
27.03.2020 11:00:00 9,1 -0,8 13,2 10,7 14 7 21 11 NNW 1015,7 19 53 0,0
27.03.2020 10:00:00 7,2 -1,8 13,0 10,8 12 6 30 16 NW 1015,9 19 55 0,0
27.03.2020 09:00:00 6,1 -1,8 6,8 10,8 14 8 22 12 NNW 1016,0 18 30 0,0
27.03.2020 08:00:00 4,9 -2,5 -0,2 11,0 11 6 20 11 N 1015,8 19 0 0,0
27.03.2020 07:00:00 2,9 -2,6 -0,9 11,1 6 3 11 6 N 1015,8 19 0 0,0
27.03.2020 06:00:00 4,1 -2,8 0,7 11,3 8 4 14 7 N 1015,3 20 0 0,0
27.03.2020 05:00:00 4,2 -3,1 0,4 11,4 0 0 11 6 N 1014,8 19 0 0,0
27.03.2020 04:00:00 5,2 -3,1 2,3 11,6 8 5 22 12 N 1014,5 20 0 0,0
27.03.2020 03:00:00 6,1 -3,0 3,4 11,7 14 8 21 12 NNW 1014,3 20 0 0,0
27.03.2020 02:00:00 6,4 -3,0 4,1 11,8 16 9 23 13 NW 1014,1 19 0 0,0
27.03.2020 01:00:00 6,5 -2,7 4,5 12,0 16 9 25 13 NNW 1013,8 18 0 0,0
27.03.2020 00:00:00 7,0 -2,7 4,9 12,1 19 11 29 16 NNW 1013,9 20 0 0,0
26.03.2020 23:00:00 7,9 -2,7 6,2 12,2 19 10 29 16 NNW 1013,7 20 0 0,0
26.03.2020 22:00:00 8,7 -2,0 7,4 12,3 18 10 30 16 NNW 1013,4 21 0 0,0
26.03.2020 21:00:00 9,1 -1,1 7,8 12,3 19 11 31 17 NNW 1013,3 20 0 0,0
26.03.2020 20:00:00 9,4 -1,1 7,5 12,3 18 10 29 16 NNW 1013,2 22 0 0,0
26.03.2020 19:00:00 10,0 -0,5 8,2 12,3 19 10 42 23 NNW 1012,6 23 16 0,0
26.03.2020 18:00:00 11,0 -0,2 12,5 12,1 22 12 41 22 N 1012,3 28 58 0,0
26.03.2020 17:00:00 12,1 -0,4 16,8 11,9 22 12 34 19 N 1011,9 23 60 0,0
26.03.2020 16:00:00 11,9 -2,7 16,3 11,6 19 11 32 18 N 1011,9 25 56 0,0
26.03.2020 15:00:00 12,1 -5,0 21,1 11,3 14 8 24 13 NNW 1012,2 20 60 0,0
26.03.2020 14:00:00 11,6 -5,9 18,8 11,1 6 3 21 11 N 1012,7 50 57 0,0
26.03.2020 13:00:00 10,6 -2,8 19,3 10,9 7 4 17 9 SSW 1012,8 25 60 0,0
26.03.2020 12:00:00 9,8 -3,5 17,6 10,8 5 3 22 12 N 1013,0 16 60 0,0
26.03.2020 11:00:00 9,4 0,3 14,9 10,8 10 5 24 13 E 1013,2 60 60 0,0
26.03.2020 10:00:00 7,3 0,7 12,8 10,8 14 8 26 14 ENE 1013,6 35 60 0,0
26.03.2020 09:00:00 5,8 1,3 6,2 10,9 15 8 23 13 E 1013,5 35 51 0,0
26.03.2020 08:00:00 5,2 0,0 2,9 11,0 10 5 22 12 E 1013,5 36 14 0,0
26.03.2020 07:00:00 3,4 0,4 2,4 11,1 10 6 20 11 S 1013,6 35 0 0,0
26.03.2020 06:00:00 3,4 0,8 2,4 11,3 15 8 36 19 S 1013,6 29 0 0,0
26.03.2020 05:00:00 3,3 1,0 2,5 11,4 23 13 46 25 S 1013,6 19 0 0,0
26.03.2020 04:00:00 4,0 0,5 3,4 11,5 27 15 52 28 S 1013,4 26 0 0,0
26.03.2020 03:00:00 4,7 0,3 4,1 11,6 27 14 50 27 S 1013,1 42 0 0,0
26.03.2020 02:00:00 4,9 1,6 2,6 11,8 20 11 35 19 S 1013,3 44 0 0,0
26.03.2020 01:00:00 5,4 0,8 3,4 11,9 7 4 16 8 S 1013,1 14 0 0,0
26.03.2020 00:00:00 5,4 0,6 2,9 12,0 12 6 20 11 S 1013,3 16 0 0,0
25.03.2020 23:00:00 6,1 0,4 4,2 12,1 10 5 20 11 SSE 1013,3 16 0 0,0
25.03.2020 22:00:00 7,2 0,8 6,0 12,2 12 7 27 14 ESE 1013,4 16 0 0,0
25.03.2020 21:00:00 9,1 -4,8 6,6 12,2 14 7 19 10 NNW 1013,3 30 0 0,0
25.03.2020 20:00:00 9,8 -4,6 8,4 12,2 14 7 25 14 NW 1013,5 32 0 0,0
25.03.2020 19:00:00 10,1 -5,9 8,9 12,1 17 9 35 19 N 1013,4 36 0 0,0
25.03.2020 18:00:00 10,8 -1,6 10,4 11,9 17 9 29 16 N 1013,3 26 29 0,0
25.03.2020 17:00:00 11,5 -1,0 17,6 11,7 18 10 30 16 NNW 1013,4 19 60 0,0
25.03.2020 16:00:00 11,7 -0,5 16,3 11,5 16 8 32 17 N 1014,0 19 56 0,0
25.03.2020 15:00:00 11,6 0,1 14,6 11,2 14 8 26 14 NNE 1014,9 20 47 0,0
25.03.2020 14:00:00 11,2 0,0 16,8 11,0 11 6 29 16 N 1015,9 20 49 0,0
25.03.2020 13:00:00 10,5 0,5 18,5 10,8 8 5 19 11 N 1016,8 20 58 0,0
25.03.2020 12:00:00 9,4 -1,4 19,5 10,7 8 4 17 9 N 1018,2 19 60 0,0
25.03.2020 11:00:00 8,9 -1,0 15,4 10,7 6 3 15 8 N 1019,1 19 60 0,0
25.03.2020 10:00:00 7,7 -1,3 13,4 10,8 4 2 11 6 ESE 1020,1 19 60 0,0
25.03.2020 09:00:00 5,9 0,2 8,0 11,0 2 1 6 3 E 1020,6 18 60 0,0
25.03.2020 08:00:00 2,7 0,9 -3,3 11,2 2 1 6 3 W 1021,3 12 46 0,0
25.03.2020 07:00:00 0,4 -1,2 -3,7 11,3 2 1 6 3 S 1021,6 16 0 0,0
25.03.2020 06:00:00 0,9 -1,0 -3,7 11,5 0 0 8 4 N 1021,5 21 0 0,0
25.03.2020 05:00:00 1,5 -0,4 -2,7 11,7 2 1 9 5 SW 1021,4 20 0 0,0
25.03.2020 04:00:00 2,3 0,0 -2,5 11,8 3 2 11 6 ENE 1021,6 24 0 0,0
25.03.2020 03:00:00 2,4 -0,4 -1,7 12,0 6 3 15 8 SE 1021,6 31 0 0,0
25.03.2020 02:00:00 3,3 0,5 -0,8 12,2 5 3 12 7 ESE 1021,8 25 0 0,0
25.03.2020 01:00:00 4,2 0,9 0,9 12,3 6 3 13 7 ESE 1021,9 27 0 0,0
25.03.2020 00:00:00 4,8 1,3 2,8 12,4 9 5 26 14 S 1021,9 26 0 0,0
24.03.2020 23:00:00 5,3 1,6 3,9 12,6 15 8 26 14 S 1022,1 28 0 0,0
24.03.2020 22:00:00 5,8 1,7 4,4 12,7 15 8 34 18 S 1021,8 29 0 0,0
24.03.2020 21:00:00 7,3 2,2 1,5 12,7 16 9 26 14 S 1021,5 29 0 0,0
24.03.2020 20:00:00 8,3 -3,9 1,7 12,7 5 3 15 8 N 1020,8 47 0 0,0
24.03.2020 19:00:00 9,8 -3,2 6,4 12,6 10 6 18 10 N 1020,3 46 16 0,0
24.03.2020 18:00:00 11,4 -1,4 14,3 12,4 9 5 23 12 N 1020,0 35 60 0,0
24.03.2020 17:00:00 12,3 -0,9 17,6 12,2 10 5 21 11 NNW 1019,9 34 60 0,0
24.03.2020 16:00:00 12,1 -0,8 17,1 11,9 11 6 24 13 N 1020,2 20 60 0,0
24.03.2020 15:00:00 11,8 -1,7 20,2 11,6 13 7 28 15 N 1021,1 23 60 0,0
24.03.2020 14:00:00 11,5 -1,3 19,7 11,4 5 3 16 9 N 1021,8 20 60 0,0
24.03.2020 13:00:00 10,8 -1,3 19,9 11,2 5 3 16 8 NW 1022,4 20 60 0,0
24.03.2020 12:00:00 9,1 -2,8 17,4 11,2 4 2 13 7 ESE 1023,3 34 60 0,0
24.03.2020 11:00:00 7,8 -3,4 16,7 11,2 6 3 17 9 NNW 1023,7 50 60 0,0
24.03.2020 10:00:00 6,0 -3,9 13,5 11,4 6 3 17 9 N 1024,4 45 60 0,0
24.03.2020 09:00:00 4,4 -5,1 6,4 11,5 8 5 16 9 N 1024,8 52 60 0,0
24.03.2020 08:00:00 2,9 -6,0 0,3 11,6 9 5 19 10 N 1024,8 48 39 0,0
24.03.2020 07:00:00 2,3 -5,4 -0,5 11,8 9 5 17 9 N 1024,7 39 0 0,0
24.03.2020 06:00:00 3,2 -5,0 0,3 12,0 11 6 16 8 N 1024,7 42 0 0,0
24.03.2020 05:00:00 4,2 -4,3 1,2 12,1 8 4 11 6 N 1024,4 45 0 0,0
24.03.2020 04:00:00 4,8 -5,0 0,8 12,3 7 4 11 6 N 1024,4 45 0 0,0
24.03.2020 03:00:00 3,3 -1,3 -1,5 12,5 3 1 7 4 N 1024,3 29 0 0,0
24.03.2020 02:00:00 3,2 -1,6 -1,5 12,7 0 0 4 2 N 1024,4 29 0 0,0
24.03.2020 01:00:00 4,6 -0,8 -0,9 12,8 3 1 10 5 W 1024,3 26 0 0,0
24.03.2020 00:00:00 6,1 0,4 0,6 12,9 2 1 7 4 W 1023,9 22 0 0,0
23.03.2020 23:00:00 7,2 1,5 2,5 13,1 5 3 9 5 SSE 1023,9 24 0 0,0
23.03.2020 22:00:00 8,5 0,2 5,0 13,2 8 5 15 8 NE 1023,4 34 0 0,0
23.03.2020 21:00:00 9,7 3,0 5,8 13,2 7 4 13 7 N 1022,9 27 0 0,0
23.03.2020 20:00:00 10,6 3,6 6,7 13,2 8 4 16 8 N 1022,6 26 0 0,0
23.03.2020 19:00:00 11,5 4,0 8,8 13,1 12 6 21 11 N 1022,1 27 20 0,0
23.03.2020 18:00:00 12,8 4,5 15,2 13,0 14 8 23 12 N 1021,4 29 60 0,0
23.03.2020 17:00:00 13,5 4,6 19,6 12,7 14 7 26 14 N 1021,2 20 60 0,0
23.03.2020 16:00:00 13,7 4,3 19,3 12,5 16 8 27 14 NNW 1021,5 20 60 0,0
23.03.2020 15:00:00 13,7 4,3 22,2 12,3 12 6 25 13 NNW 1022,0 18 60 0,0
23.03.2020 14:00:00 12,8 3,4 20,7 12,1 13 7 24 13 NNW 1022,5 37 58 0,0
23.03.2020 13:00:00 12,5 3,4 18,0 12,0 10 6 26 14 NNW 1022,9 19 34 0,0
23.03.2020 12:00:00 11,6 3,4 17,7 12,0 10 5 24 13 NW 1023,0 24 41 0,0
23.03.2020 11:00:00 11,0 2,6 13,6 11,9 9 5 16 9 NW 1023,2 20 39 0,0
23.03.2020 10:00:00 9,1 2,2 10,9 12,0 6 3 10 6 N 1023,4 29 0 0,0
23.03.2020 09:00:00 8,3 1,4 8,0 12,1 3 1 8 4 NE 1023,3 30 0 0,0
23.03.2020 08:00:00 7,7 1,1 7,3 12,2 5 3 13 7 E 1022,9 29 0 0,0
23.03.2020 07:00:00 7,7 1,3 7,2 12,3 6 4 16 9 E 1022,5 34 0 0,0
23.03.2020 06:00:00 8,0 1,2 7,4 12,3 8 4 16 9 E 1022,1 36 0 0,0
23.03.2020 05:00:00 8,4 1,3 7,9 12,4 6 4 14 8 ESE 1021,7 37 0 0,0
23.03.2020 04:00:00 8,7 1,6 8,1 12,5 8 4 18 10 ESE 1021,5 38 0 0,0
23.03.2020 03:00:00 8,9 1,5 8,3 12,6 9 5 16 8 ESE 1021,3 38 0 0,0
23.03.2020 02:00:00 9,0 2,3 8,4 12,7 5 3 18 10 ESE 1021,3 34 0 0,0
23.03.2020 01:00:00 9,2 2,5 8,7 12,7 9 5 19 10 SE 1021,0 35 0 0,0
23.03.2020 00:00:00 9,3 2,6 8,7 12,7 9 5 22 12 ESE 1020,9 38 0 0,0
22.03.2020 23:00:00 9,5 3,0 9,1 12,9 13 7 21 11 ESE 1020,6 35 0 0,0
22.03.2020 22:00:00 10,4 3,9 9,7 12,9 6 3 20 11 E 1020,0 31 0 0,0

tt = Température de l'air
td = dewpoint
tt 5cm = Température de l'air 5cm
tt -20cm = Température de l'air -20cm
ff = Vitesse du vent
fx = gusts
dd = Direction du vent
ppp = reduced air pressure
vv = visibility
sd = Ensoleillement
rr = Quantités de précipitations

stations d'obs. à proximité